424  
ASUS45 KCYS 300810  
RWRWY  
 
WYOMING REGIONAL WEATHER ROUNDUP  
NATIONAL WEATHER SERVICE CHEYENNE WY  
200 AM MDT TUE MAY 30 2017  
 
NOTE: "FAIR" INDICATES FEW OR NO CLOUDS BELOW 12,000 FEET  
WITH NO SIGNIFICANT WEATHER AND/OR S TO VISIBILITY
.  
 
WYZ001-300900-  
YELLOWSTONE NATIONAL PARK  
 
CITY SKY/WX TMP DP RH WIND PRES REMARKS
 
LK YELLOWSTONE N/A 32 30 92 CALM 30.32S  
W YELLOWSTONE NOT AVBL  
 

 
WYZ002>013-054>058-071-098>099-300900-  
NORTHERN WYOMING  
 
CITY SKY/WX TMP DP RH WIND PRES REMARKS
 
JACKSON FAIR 41 34 75 NE3 30.26S  
CODY FAIR 52 37 56 SW7 30.19F  
GREYBULL FAIR 51 31 46 E5 30.13S  
WORLAND FAIR 44 38 79 S7 30.14F  
SHERIDAN FAIR 42 37 82 CALM 30.14S  
BUFFALO FAIR 51 28 41 W9 30.18F  
GILLETTE FAIR 41 34 76 W7 30.15F  
HULETT FAIR 41 30 65 CALM 30.16S  
NEWCASTLE FAIR 39 30 70 N5 30.17S  
 

 
WYZ014>020-022>026-101>103-300900-  
CENTRAL WYOMING  
 
CITY SKY/WX TMP DP RH WIND PRES REMARKS
 
BIG PINEY FAIR 39 33 79 N10 30.30R WCI 32  
PINEDALE FAIR 37 34 87 NW6 30.31R WCI 33  
DUBOIS FAIR 39 32 75 W7 30.30S WCI 34  
LANDER FAIR 51 41 68 CALM 30.20S  
RIVERTON FAIR 48 41 76 NW9 30.20F  
CASPER FAIR 38 36 92 W5 30.21F WCI 34  
DOUGLAS FAIR 41 36 82 CALM 30.21F  
 

 
WYZ021-027>030-104>119-300900-  
SOUTHERN WYOMING  
 
CITY SKY/WX TMP DP RH WIND PRES REMARKS
 
EVANSTON FAIR 51 35 54 E9 30.24F  
KEMMERER N/A 48 32 53 NE6 30.28S  
FORT BRIDGER FAIR 46 33 59 SE3 30.28S  
ROCK SPRINGS FAIR 49 32 52 E7 30.26S  
DIXON N/A 47 35 61 E10 30.27S  
RAWLINS FAIR 41 34 76 N6 30.26F  
SARATOGA FAIR 37 34 87 SE5 30.28F WCI 34  
LARAMIE FAIR 37 34 89 S9 30.28S WCI 30  
CHEYENNE FAIR 42 38 85 W6 30.24F  
TORRINGTON FAIR 47 37 68 CALM 30.17S  
PINE BLUFFS FAIR 43 41 93 CALM 30.22S  
 

 
 
 
CLICK HERE TO GO TO PREVIOUS BULLETINS.

The Nexlab WY Page Main Text Page